Location: Cedar Brake
(32.2526°N, 97.8459°W)
Time: 16:40:00
(UTC+00:00)

Okean 3 Rocket - Pass Details

Date: 22 April 2026
Orbit: 609 x 637 km, 82.5° (Epoch: 8 May)

Event Time Altitude Azimuth Distance (km) Brightness Sun altitude
Rises 10:30:12 0° 352° (N) 2,911 7.3 -17.4°
Reaches altitude 10° 10:32:26 10° 351° (N) 2,005 6.4 -17.0°
Maximum altitude 10:36:53 81° 265° (W) 643 3.5 -16.1°
Drops below altitude 10° 10:41:20 10° 178° (S) 2,008 5.9 -15.3°
Sets 10:43:34 0° 178° (S) 2,915 6.8 -14.9°
